Flight Track Log - Related Links

Times and Time Zones

All times are in EDT time to prevent confusion due to time zone crossing. See the UPS214 flight status page for this flight to view local times or setup timezone preferences in your user account.


Time Position Orientation Groundspeed Altitude Reporting Facility
EDT Latitude Longitude Course Direction KTS MPH feet Rate Location/Type
Wed 05:31:00 PM 52.1189 3.1279 298° West  Level Estimated
Wed 05:32:00 PM 52.1431 3.0434 295° West  Level Estimated
Wed 05:33:00 PM 52.1672 2.9588 295° West  Level Estimated
Wed 05:34:00 PM 52.1913 2.8741 295° West  Level Estimated
Wed 05:35:00 PM 52.2153 2.7893 295° West  Level Estimated
Wed 05:36:00 PM 52.2393 2.7044 295° West  Level Estimated
Wed 05:37:00 PM 52.2632 2.6195 295° West  Level Estimated
Wed 05:38:00 PM 52.2870 2.5344 295° West  Level Estimated
Wed 05:39:00 PM 52.3108 2.4492 295° West  Level Estimated
Wed 05:40:00 PM 52.3345 2.3640 295° West  Level Estimated
Wed 05:41:00 PM 52.3582 2.2787 294° West  Level Estimated
Wed 05:42:00 PM 52.3818 2.1932 294° West  Level Estimated
Wed 05:43:00 PM 52.4053 2.1077 294° West  Level Estimated
Wed 05:44:00 PM 52.4288 2.0221 294° West  Level Estimated
Wed 05:45:00 PM 52.4522 1.9364 294° West  Level Estimated
Wed 05:46:00 PM 52.4755 1.8506 294° West  Level Estimated
Wed 05:47:00 PM 52.4988 1.7647 294° West  Level Estimated
Wed 05:48:00 PM 52.5220 1.6787 294° West  Level Estimated
Wed 05:49:00 PM 52.5452 1.5927 294° West  Level Estimated
Wed 05:50:00 PM 52.5683 1.5065 294° West  Level Estimated
Wed 05:51:00 PM 52.5913 1.4202 294° West  Level Estimated
Wed 05:52:00 PM 52.6143 1.3339 294° West  Level Estimated
Wed 05:53:00 PM 52.6372 1.2475 294° West  Level Estimated
Wed 05:54:00 PM 52.6600 1.1609 294° West  Level Estimated
Wed 05:55:00 PM 52.6828 1.0743 293° West  Level Estimated
Wed 05:56:00 PM 52.7055 0.9876 293° West  Level Estimated
Wed 05:57:00 PM 52.7282 0.9008 293° West  Level Estimated
Wed 05:58:00 PM 52.7508 0.8140 293° West  Level Estimated
Wed 05:59:00 PM 52.7733 0.7270 293° West  Level Estimated
Wed 06:00:00 PM 52.7957 0.6399 293° West  Level Estimated
Wed 06:01:00 PM 52.8181 0.5528 293° West  Level Estimated
Wed 06:02:00 PM 52.8405 0.4656 293° West  Level Estimated
Wed 06:03:00 PM 52.8628 0.3782 293° West  Level Estimated
Wed 06:04:00 PM 52.8850 0.2908 293° West  Level Estimated
Wed 06:05:00 PM 52.9071 0.2033 293° West  Level Estimated
Wed 06:06:00 PM 52.9292 0.1157 293° West  Level Estimated
Wed 06:07:00 PM 52.9512 0.0280 293° West  Level Estimated
Wed 06:08:00 PM 52.9731 -0.0598 293° West  Level Estimated
Wed 06:09:00 PM 52.9950 -0.1477 293° West  Level Estimated
Wed 06:10:00 PM 53.0169 -0.2356 292° West  Level Estimated
Wed 06:11:00 PM 53.0386 -0.3237 292° West  Level Estimated
Wed 06:12:00 PM 53.0603 -0.4118 292° West  Level Estimated
Wed 06:13:00 PM 53.0819 -0.5000 292° West  Level Estimated
Wed 06:14:00 PM 53.1035 -0.5883 292° West  Level Estimated
Wed 06:15:00 PM 53.1250 -0.6767 292° West  Level Estimated
Wed 06:16:00 PM 53.1464 -0.7652 292° West  Level Estimated
Wed 06:17:00 PM 53.1678 -0.8538 292° West  Level Estimated
Wed 06:18:00 PM 53.1891 -0.9424 292° West  Level Estimated
Wed 06:19:00 PM 53.2103 -1.0312 292° West  Level Estimated
Wed 06:20:00 PM 53.2315 -1.1200 292° West  Level Estimated
Wed 06:21:00 PM 53.2526 -1.2090 292° West  Level Estimated
Wed 06:22:00 PM 53.2736 -1.2980 292° West  Level Estimated
Wed 06:23:00 PM 53.2946 -1.3871 292° West  Level Estimated
Wed 06:24:00 PM 53.3155 -1.4763 291° West  Level Estimated
Wed 06:25:00 PM 53.3363 -1.5656 291° West  Level Estimated
Wed 06:26:00 PM 53.3571 -1.6549 291° West  Level Estimated
Wed 06:27:00 PM 53.3778 -1.7444 291° West  Level Estimated
Wed 06:28:00 PM 53.3984 -1.8339 291° West  Level Estimated
Wed 06:29:00 PM 53.4190 -1.9236 291° West  Level Estimated
Wed 06:30:00 PM 53.4395 -2.0133 291° West  Level Estimated
Wed 06:31:00 PM 53.4599 -2.1031 291° West  Level Estimated
Wed 06:32:00 PM 53.4803 -2.1929 291° West  Level Estimated
Wed 06:33:00 PM 53.5006 -2.2829 291° West  Level Estimated
Wed 06:34:00 PM 53.5208 -2.3730 291° West  Level Estimated
Wed 06:35:00 PM 53.5410 -2.4631 291° West  Level Estimated
Wed 06:36:00 PM 53.5611 -2.5533 291° West  Level Estimated
Wed 06:37:00 PM 53.5811 -2.6437 291° West  Level Estimated
Wed 06:38:00 PM 53.6010 -2.7341 290° West  Level Estimated
Wed 06:39:00 PM 53.6209 -2.8245 290° West  Level Estimated
Wed 06:40:00 PM 53.6408 -2.9151 290° West  Level Estimated
Wed 06:41:00 PM 53.6605 -3.0058 290° West  Level Estimated
Wed 06:42:00 PM 53.6802 -3.0965 290° West  Level Estimated
Wed 06:43:00 PM 53.6998 -3.1873 290° West  Level Estimated
Wed 06:44:00 PM 53.7193 -3.2782 290° West  Level Estimated
Wed 06:45:00 PM 53.7388 -3.3692 290° West  Level Estimated
Wed 06:46:00 PM 53.7582 -3.4603 290° West  Level Estimated
Wed 06:47:00 PM 53.7776 -3.5515 290° West  Level Estimated
Wed 06:48:00 PM 53.7968 -3.6427 290° West  Level Estimated
Wed 06:49:00 PM 53.8161 -3.7341 290° West  Level Estimated
Wed 06:50:00 PM 53.8352 -3.8255 290° West  Level Estimated
Wed 06:51:00 PM 53.8542 -3.9170 289° West  Level Estimated
Wed 06:52:00 PM 53.8732 -4.0086 289° West  Level Estimated
Wed 06:53:00 PM 53.8922 -4.1002 289° West  Level Estimated
Wed 06:54:00 PM 53.9110 -4.1920 289° West  Level Estimated
Wed 06:55:00 PM 53.9298 -4.2838 289° West  Level Estimated
Wed 06:56:00 PM 53.9485 -4.3757 289° West  Level Estimated
Wed 06:57:00 PM 53.9671 -4.4677 289° West  Level Estimated
Wed 06:58:00 PM 53.9857 -4.5598 289° West  Level Estimated
Wed 06:59:00 PM 54.0042 -4.6519 289° West  Level Estimated
Wed 07:00:00 PM 54.0226 -4.7442 289° West  Level Estimated
Wed 07:01:00 PM 54.0410 -4.8365 289° West  Level Estimated
Wed 07:02:00 PM 54.0593 -4.9289 289° West  Level Estimated
Wed 07:03:00 PM 54.0775 -5.0214 289° West  Level Estimated
Wed 07:04:00 PM 54.0956 -5.1139 289° West  Level Estimated
Wed 07:05:00 PM 54.1137 -5.2066 288° West  Level Estimated
Wed 07:06:00 PM 54.1317 -5.2993 288° West  Level Estimated
Wed 07:07:00 PM 54.1497 -5.3921 288° West  Level Estimated
Wed 07:08:00 PM 54.1675 -5.4850 288° West  Level Estimated
Wed 07:09:00 PM 54.1853 -5.5780 288° West  Level Estimated
Wed 07:10:00 PM 54.2030 -5.6710 288° West  Level Estimated
Wed 07:11:00 PM 54.2207 -5.7642 288° West  Level Estimated
Wed 07:12:00 PM 54.2383 -5.8574 288° West  Level Estimated
Wed 07:13:00 PM 54.2558 -5.9507 288° West  Level Estimated
Wed 07:14:00 PM 54.2732 -6.0440 288° West  Level Estimated
Wed 07:15:00 PM 54.2906 -6.1375 288° West  Level Estimated
Wed 07:16:00 PM 54.3078 -6.2310 288° West  Level Estimated
Wed 07:17:00 PM 54.3251 -6.3246 288° West  Level Estimated
Wed 07:18:00 PM 54.3422 -6.4183 287° West  Level Estimated
Wed 07:19:00 PM 54.3593 -6.5120 287° West  Level Estimated
Wed 07:20:00 PM 54.3763 -6.6059 287° West  Level Estimated
Wed 07:21:00 PM 54.3932 -6.6998 287° West  Level Estimated
Wed 07:22:00 PM 54.4100 -6.7938 287° West  Level Estimated
Wed 07:23:00 PM 54.4268 -6.8878 287° West  Level Estimated
Wed 07:24:00 PM 54.4435 -6.9820 287° West  Level Estimated
Wed 07:25:00 PM 54.4602 -7.0762 287° West  Level Estimated
Wed 07:26:00 PM 54.4767 -7.1705 287° West  Level Estimated
Wed 07:27:00 PM 54.4932 -7.2649 287° West  Level Estimated
Wed 07:28:00 PM 54.5096 -7.3593 287° West  Level Estimated
Wed 07:29:00 PM 54.5260 -7.4538 287° West  Level Estimated
Wed 07:30:00 PM 54.5422 -7.5484 287° West  Level Estimated
Wed 07:31:00 PM 54.5584 -7.6431 286° West  Level Estimated
Wed 07:32:00 PM 54.5745 -7.7379 286° West  Level Estimated
Wed 07:33:00 PM 54.5906 -7.8327 286° West  Level Estimated
Wed 07:34:00 PM 54.6065 -7.9276 286° West  Level Estimated
Wed 07:35:00 PM 54.6224 -8.0226 286° West  Level Estimated
Wed 07:36:00 PM 54.6383 -8.1176 286° West  Level Estimated
Wed 07:37:00 PM 54.6540 -8.2127 286° West  Level Estimated
Wed 07:38:00 PM 54.6697 -8.3079 286° West  Level Estimated
Wed 07:39:00 PM 54.6853 -8.4032 286° West  Level Estimated
Wed 07:40:00 PM 54.7008 -8.4985 286° West  Level Estimated
Wed 07:41:00 PM 54.7163 -8.5940 286° West  Level Estimated
Wed 07:42:00 PM 54.7316 -8.6894 286° West  Level Estimated
Wed 07:43:00 PM 54.7469 -8.7850 286° West  Level Estimated
Wed 07:44:00 PM 54.7621 -8.8806 285° West  Level Estimated
Wed 07:45:00 PM 54.7773 -8.9763 285° West  Level Estimated
Wed 07:46:00 PM 54.7924 -9.0721 285° West  Level Estimated
Wed 07:47:00 PM 54.8074 -9.1680 285° West  Level Estimated
Wed 07:48:00 PM 54.8223 -9.2639 285° West  Level Estimated
Wed 07:49:00 PM 54.8371 -9.3599 285° West  Level Estimated
Wed 07:50:00 PM 54.8519 -9.4559 285° West  Level Estimated
Wed 07:51:00 PM 54.8666 -9.5521 285° West  Level Estimated
Wed 07:52:00 PM 54.8812 -9.6483 285° West  Level Estimated
Wed 07:53:00 PM 54.8957 -9.7445 285° West  Level Estimated
Wed 07:54:00 PM 54.9102 -9.8409 285° West  Level Estimated
Wed 07:55:00 PM 54.9246 -9.9373 285° West  Level Estimated
Wed 07:56:00 PM 54.9389 -10.0338 285° West  Level Estimated
Wed 07:57:00 PM 54.9531 -10.1303 284° West  Level Estimated
Wed 07:58:00 PM 54.9673 -10.2269 284° West  Level Estimated
Wed 07:59:00 PM 54.9814 -10.3236 284° West  Level Estimated
Wed 08:00:00 PM 54.9954 -10.4203 284° West  Level Estimated
Wed 08:01:00 PM 55.0093 -10.5172 284° West  Level Estimated
Wed 08:02:00 PM 55.0232 -10.6140 284° West  Level Estimated
Wed 08:03:00 PM 55.0369 -10.7110 284° West  Level Estimated
Wed 08:04:00 PM 55.0506 -10.8080 284° West  Level Estimated
Wed 08:05:00 PM 55.0643 -10.9051 284° West  Level Estimated
Wed 08:06:00 PM 55.0778 -11.0022 284° West  Level Estimated
Wed 08:07:00 PM 55.0913 -11.0995 284° West  Level Estimated
Wed 08:08:00 PM 55.1047 -11.1967 284° West  Level Estimated
Wed 08:09:00 PM 55.1180 -11.2941 283° West  Level Estimated
Wed 08:10:00 PM 55.1312 -11.3915 283° West  Level Estimated
Wed 08:11:00 PM 55.1444 -11.4889 283° West  Level Estimated
Wed 08:12:00 PM 55.1574 -11.5865 283° West  Level Estimated
Wed 08:13:00 PM 55.1704 -11.6841 283° West  Level Estimated
Wed 08:14:00 PM 55.1834 -11.7817 283° West  Level Estimated
Wed 08:15:00 PM 55.1962 -11.8795 283° West  Level Estimated
Wed 08:16:00 PM 55.2090 -11.9773 283° West  Level Estimated

Login

Don't have an account? Register now (free) for customized features, flight alerts, and more!